Weather History for Ostend, Belgium

Change the Weather History Date:

Friday, November 16, 2012

  Actual Average Record
Temperature  
Mean Temperature 38 °F -  
Max Temperature 39 °F 46 °F 59 °F (2006)
Min Temperature 37 °F 36 °F 26 °F (1999)
Degree Days  
Heating Degree Days 27    
Moisture  
Dew Point 35 °F    
Average Humidity 85    
Maximum Humidity 93    
Minimum Humidity 74    
Precipitation  
Precipitation 0.00 in - - ()
Sea Level Pressure  
Sea Level Pressure 30.03 in    
Wind  
Wind Speed 6 mph ()    
Max Wind Speed 13 mph    
Max Gust Speed -    
Visibility 2.2 miles    
Events Fog    
Averages and records for this station are not official NWS values.
T = Trace of Precipitation, MM = Missing Value Source: Averaged Metar Reports

Daily Weather History Graph

Daily Weather History Graph

Search for Another Location

Airport:

Trip Planner

Search our weather history database for the weather conditions in past years. The results will help you decide how hot, cold, wet, or windy it might be!

Date:

Astronomy

Nov. 16, 2012 Rise Set
Actual Time 8:07 AM CET 4:58 PM CET
Civil Twilight 7:30 AM CET 5:35 PM CET
Nautical Twilight 6:50 AM CET 6:15 PM CET
Astronomical Twilight 6:11 AM CET 6:55 PM CET
Moon 10:55 AM CET (11/16) 7:34 PM CET (11/16)
Length of Visible Light 10h 04m
Length of Day
8h 50m
Waxing Crescent, 9% of the Moon is Illuminated
Nov 16
Waxing Crescent
Nov 20
First Quarter
Nov 28
Full
Dec 6
Last Quarter
Dec 13
New

Hourly Weather History & Observations

Time (CET) Temp. Windchill Dew Point Humidity Pressure Visibility Wind Dir Wind Speed Gust Speed Precip Events Conditions
12:20 AM 39.2 °F 35.9 °F 33.8 °F 81% 30.15 in 2.8 mi South 4.6 mph - N/A   Mostly Cloudy
12:50 AM 39.2 °F 35.0 °F 33.8 °F 81% 30.12 in 2.8 mi South 5.8 mph - N/A   Mostly Cloudy
1:00 AM 39 °F - 34 °F 74% 30.15 in 3 mi South 4.5 mph - -   Mist
1:20 AM 39.2 °F - 33.8 °F 81% 30.12 in 2.8 mi Variable 2.3 mph - N/A   Mostly Cloudy
1:50 AM 39.2 °F 37.0 °F 33.8 °F 81% 30.12 in 2.8 mi SSE 3.5 mph - N/A   Mostly Cloudy
2:20 AM 39.2 °F 35.9 °F 33.8 °F 81% 30.12 in 2.5 mi South 4.6 mph - N/A   Mostly Cloudy
2:50 AM 39.2 °F 37.0 °F 33.8 °F 81% 30.12 in 2.5 mi SSE 3.5 mph - N/A   Mostly Cloudy
3:20 AM 39.2 °F 35.9 °F 33.8 °F 81% 30.09 in 2.5 mi SSE 4.6 mph - N/A   Mostly Cloudy
3:50 AM 39.2 °F 35.9 °F 33.8 °F 81% 30.09 in 2.5 mi SE 4.6 mph - N/A   Mostly Cloudy
4:00 AM 39 °F - 34 °F 77% 30.12 in 2 mi SE 4.5 mph - -   Mist
4:20 AM 39.2 °F 35.0 °F 33.8 °F 81% 30.09 in 2.2 mi SSE 5.8 mph - N/A   Mostly Cloudy
4:50 AM 39.2 °F 35.9 °F 33.8 °F 81% 30.09 in 2.2 mi SSE 4.6 mph - N/A   Mostly Cloudy
5:20 AM 39.2 °F 35.9 °F 33.8 °F 81% 30.09 in 2.2 mi South 4.6 mph - N/A   Mostly Cloudy
5:50 AM 39.2 °F 33.6 °F 33.8 °F 81% 30.09 in 2.5 mi South 8.1 mph - N/A   Mostly Cloudy
6:20 AM 39.2 °F 35.0 °F 33.8 °F 81% 30.06 in 2.5 mi South 5.8 mph - N/A   Mostly Cloudy
6:50 AM 39.2 °F 34.2 °F 33.8 °F 81% 30.09 in 2.5 mi South 6.9 mph - N/A   Mostly Cloudy
7:00 AM 39 °F - 34 °F 76% 30.10 in 2 mi South 6.7 mph - -   Mist
7:20 AM 39.2 °F 34.2 °F 35.6 °F 87% 30.06 in 2.5 mi South 6.9 mph - N/A   Mostly Cloudy
7:50 AM 39.2 °F 33.6 °F 33.8 °F 81% 30.09 in 2.5 mi South 8.1 mph - N/A   Mostly Cloudy
8:20 AM 37.4 °F 32.1 °F 33.8 °F 87% 30.09 in - South 6.9 mph - N/A   Mostly Cloudy
8:50 AM 39.2 °F 35.9 °F 33.8 °F 81% 30.09 in - South 4.6 mph - N/A   Mostly Cloudy
9:20 AM 37.4 °F 31.4 °F 33.8 °F 87% 30.09 in - SSW 8.1 mph - N/A   Mostly Cloudy
9:50 AM 37.4 °F 30.8 °F 33.8 °F 87% 30.09 in - SSE 9.2 mph - N/A   Mostly Cloudy
10:00 AM 38 °F - 34 °F 78% 30.10 in 3 mi SSE 8.9 mph - -   Mist
10:20 AM 37.4 °F 32.1 °F 33.8 °F 87% 30.09 in 3.1 mi South 6.9 mph - N/A   Mostly Cloudy
10:50 AM 37.4 °F 30.8 °F 33.8 °F 87% 30.06 in 3.1 mi South 9.2 mph - N/A   Mostly Cloudy
11:20 AM 37.4 °F 30.8 °F 33.8 °F 87% 30.06 in 3.1 mi South 9.2 mph - N/A   Mostly Cloudy
11:50 AM 39.2 °F 33.0 °F 33.8 °F 81% 30.06 in 3.1 mi South 9.2 mph - N/A   Mostly Cloudy
12:20 PM 39.2 °F 33.0 °F 35.6 °F 87% 30.04 in 3.1 mi SSE 9.2 mph - N/A   Mostly Cloudy
12:50 PM 39.2 °F 33.0 °F 35.6 °F 87% 30.04 in 2.8 mi SSE 9.2 mph - N/A   Mostly Cloudy
1:00 PM 39 °F - 35 °F 80% 30.05 in 3 mi SSE 8.9 mph - -   Mist
1:20 PM 39.2 °F 34.2 °F 35.6 °F 87% 30.04 in 2.5 mi South 6.9 mph - N/A   Mostly Cloudy
1:50 PM 39.2 °F 33.0 °F 35.6 °F 87% 30.01 in 2.5 mi South 9.2 mph - N/A   Overcast
2:20 PM 39.2 °F 33.6 °F 35.6 °F 87% 30.01 in 2.2 mi South 8.1 mph - N/A   Overcast
2:50 PM 39.2 °F 33.6 °F 35.6 °F 87% 30.01 in - SSE 8.1 mph - N/A   Mostly Cloudy
3:20 PM 39.2 °F 33.6 °F 35.6 °F 87% 30.01 in 0.9 mi South 8.1 mph - N/A   Mostly Cloudy
3:50 PM 39.2 °F 33.0 °F 37.4 °F 93% 29.98 in 0.9 mi SSE 9.2 mph - N/A Fog Patches of Fog
4:00 PM 39 °F - 37 °F 88% 30.00 in 1 mi SSE 8.9 mph - - Fog Patches of Fog
4:20 PM 39.2 °F 33.0 °F 37.4 °F 93% 29.98 in 1.1 mi SSE 9.2 mph - N/A   Mostly Cloudy
4:50 PM 39.2 °F 32.5 °F 37.4 °F 93% 29.98 in 0.9 mi SSE 10.4 mph - N/A   Mostly Cloudy
5:20 PM 39.2 °F 33.0 °F 37.4 °F 93% 29.98 in 1.1 mi SSE 9.2 mph - N/A   Mostly Cloudy
5:50 PM 39.2 °F 32.5 °F 37.4 °F 93% 29.98 in 1.0 mi SSE 10.4 mph - N/A   Mostly Cloudy
6:20 PM 39.2 °F 32.5 °F 37.4 °F 93% 29.98 in 1.4 mi SSE 10.4 mph - N/A   Mostly Cloudy
6:50 PM 39.2 °F 33.0 °F 35.6 °F 87% 29.98 in 1.5 mi SSE 9.2 mph - N/A   Mostly Cloudy
7:00 PM 39 °F - 36 °F 86% 29.98 in 1 mi SSE 8.9 mph - -   Mist
7:20 PM 39.2 °F 32.5 °F 35.6 °F 87% 29.95 in 1.6 mi SSE 10.4 mph - N/A   Mostly Cloudy
7:50 PM 39.2 °F 32.5 °F 37.4 °F 93% 29.95 in 1.6 mi SSE 10.4 mph - N/A   Mostly Cloudy
8:20 PM 39.2 °F 32.0 °F 35.6 °F 87% 29.95 in 1.6 mi SSE 11.5 mph - N/A   Mostly Cloudy
8:50 PM 39.2 °F 31.6 °F 35.6 °F 87% 29.92 in 1.5 mi SSE 12.7 mph - N/A   Mostly Cloudy
9:20 PM 39.2 °F 31.6 °F 35.6 °F 87% 29.92 in 1.1 mi SSE 12.7 mph - N/A   Mostly Cloudy
9:50 PM 39.2 °F 31.6 °F 35.6 °F 87% 29.92 in 1.1 mi SSE 12.7 mph - N/A   Mostly Cloudy
10:00 PM 38 °F - 36 °F 89% 29.94 in 1 mi SSE 13.4 mph - -   Mist
10:20 PM 37.4 °F 30.3 °F 35.6 °F 93% 29.92 in 1.6 mi SSE 10.4 mph - N/A   Mostly Cloudy
10:50 PM 37.4 °F 32.1 °F 33.8 °F 87% 29.92 in 2.8 mi South 6.9 mph - N/A   Partly Cloudy
11:20 PM 37.4 °F 32.1 °F 33.8 °F 87% 29.89 in 3.7 mi South 6.9 mph - N/A   Partly Cloudy
11:50 PM 37.4 °F 32.1 °F 33.8 °F 87% 29.89 in 4.3 mi SSE 6.9 mph - N/A   Partly Cloudy